DW1549 Fauske NO current weather conditions

sailwx.info

Wind from 124 at 19 knots gusting 31

Air temperature 4.4° C
Dewpoint -1.8° C

Last reported at 2014-Oct-21 09:49 UTC.
Time now 2014-Oct-21 10:19 UTC

Location: N 67°16' E 015°25'.
View on Google Maps.

See reports from other nearby stations

  
Tides and Currents Weather Stations Pressure Air Temp Water Temp Dewpoint Dewpoint Depression Visibility Wind Speed Wind Dir Waves Ship Positions
date/time (UTC)wind fromknots sea level pressurealtimeterstation pressurevisibilityair tempwater tempwave heightnotes
2014-Oct-21 09:49 124 19 gusting 31 4.4
2014-Oct-21 09:39 107 19 gusting 28 4.4
2014-Oct-21 09:29 127 20 gusting 30 4.4
2014-Oct-21 09:19 109 19 gusting 32 4.4
2014-Oct-21 09:09 101 18 gusting 30 5.0
2014-Oct-21 08:59 123 18 gusting 30 5.0
2014-Oct-21 08:49 078 17 gusting 30 5.0
2014-Oct-21 08:39 119 19 gusting 32 5.0
2014-Oct-21 08:29 105 17 gusting 27 4.4
2014-Oct-21 08:19 136 19 gusting 28 4.4
2014-Oct-21 08:09 117 20 gusting 30 4.4
2014-Oct-21 07:59 120 17 gusting 28 4.4
2014-Oct-21 07:49 146 17 gusting 28 4.4
2014-Oct-21 07:39 106 13 gusting 26 3.9
2014-Oct-21 07:29 108 17 gusting 32 3.9
2014-Oct-21 07:19 104 16 gusting 31 4.4
2014-Oct-21 07:09 119 19 gusting 28 3.9
2014-Oct-21 06:59 131 20 gusting 28 3.9
2014-Oct-21 06:49 123 18 gusting 26 3.9
2014-Oct-21 06:39 124 18 gusting 22 3.9
2014-Oct-21 06:29 115 14 gusting 26 3.9
2014-Oct-21 06:19 116 11 gusting 22 3.9
2014-Oct-21 06:09 106 13 gusting 30 3.9
2014-Oct-21 05:59 120 18 gusting 25 3.9
2014-Oct-21 05:49 117 13 gusting 26 3.9
2014-Oct-21 05:39 106 13 gusting 26 3.9
2014-Oct-21 05:29 102 13 gusting 25 3.9
2014-Oct-21 05:19 119 12 gusting 26 3.9
2014-Oct-21 05:09 114 14 gusting 27 3.9
2014-Oct-21 04:59 120 14 gusting 28 3.9
2014-Oct-21 04:49 120 17 gusting 26 3.9
2014-Oct-21 04:39 115 14 gusting 28 3.9
2014-Oct-21 04:29 112 15 gusting 25 3.9
2014-Oct-21 04:19 119 15 gusting 26 3.9
2014-Oct-21 04:09 112 18 gusting 27 3.9
2014-Oct-21 03:59 113 19 gusting 30 3.9
2014-Oct-21 03:49 129 14 gusting 27 3.9
2014-Oct-21 03:39 110 18 gusting 28 3.9
2014-Oct-21 03:29 096 19 gusting 26 3.9
2014-Oct-21 03:19 116 17 gusting 30 3.9
2014-Oct-21 03:09 111 20 gusting 32 3.9
2014-Oct-21 02:59 113 19 gusting 28 3.9
2014-Oct-21 02:49 108 18 gusting 28 3.9
2014-Oct-21 02:39 121 18 gusting 27 3.9
2014-Oct-21 02:29 130 18 gusting 26 3.9
2014-Oct-21 02:19 115 15 gusting 26 3.9
2014-Oct-21 02:09 106 16 gusting 30 3.9
2014-Oct-21 01:59 110 15 gusting 26 3.9
2014-Oct-21 01:49 118 15 gusting 27 3.9
2014-Oct-21 01:39 113 17 gusting 26 3.9
2014-Oct-21 01:29 123 16 gusting 26 3.9
2014-Oct-21 01:19 118 18 gusting 28 3.9
2014-Oct-21 01:09 114 16 gusting 24 3.3
2014-Oct-21 00:59 112 18 gusting 27 3.3
2014-Oct-21 00:49 112 18 gusting 26 3.3
2014-Oct-21 00:39 134 19 gusting 28 3.3
2014-Oct-21 00:29 124 16 gusting 30 3.3
2014-Oct-21 00:19 120 19 gusting 27 3.3
2014-Oct-21 00:09 113 20 gusting 28 3.3
2014-Oct-20 23:59 104 19 gusting 27 3.3
2014-Oct-20 23:49 143 18 gusting 28 3.3
2014-Oct-20 23:39 119 13 gusting 26 3.3
2014-Oct-20 23:29 127 19 gusting 27 3.3
2014-Oct-20 23:19 120 18 gusting 28 3.3
2014-Oct-20 23:09 114 18 gusting 26 3.3
2014-Oct-20 22:59 109 15 gusting 25 3.3
2014-Oct-20 22:49 118 20 gusting 28 3.3
2014-Oct-20 22:39 095 16 gusting 26 3.3
2014-Oct-20 22:29 108 19 gusting 30 3.3
2014-Oct-20 22:19 106 19 gusting 30 3.3
2014-Oct-20 22:09 090 17 gusting 27 3.3
2014-Oct-20 21:59 107 18 gusting 28 3.3
2014-Oct-20 21:49 115 18 gusting 27 3.3
2014-Oct-20 21:39 103 18 gusting 27 3.3
2014-Oct-20 21:29 111 17 gusting 30 3.3
2014-Oct-20 21:19 113 17 gusting 27 3.3
2014-Oct-20 21:09 112 16 gusting 26 3.3
2014-Oct-20 20:59 110 19 gusting 27 3.3
2014-Oct-20 20:49 111 19 gusting 27 3.3
2014-Oct-20 20:39 115 20 gusting 30 3.3
2014-Oct-20 20:29 120 17 gusting 26 3.3
2014-Oct-20 20:19 117 19 gusting 28 3.3
2014-Oct-20 20:09 112 18 gusting 26 3.3
2014-Oct-20 19:59 118 15 gusting 28 3.3
2014-Oct-20 19:49 109 17 gusting 27 3.3
2014-Oct-20 19:39 117 19 gusting 27 3.3
2014-Oct-20 19:29 123 14 gusting 26 3.3
2014-Oct-20 19:19 109 14 gusting 22 3.3
2014-Oct-20 19:09 113 14 gusting 22 3.3
2014-Oct-20 18:59 115 13 gusting 24 3.3
2014-Oct-20 18:49 107 17 gusting 26 3.3
2014-Oct-20 18:39 118 17 gusting 26 3.3
2014-Oct-20 18:29 112 17 gusting 22 3.3
2014-Oct-20 18:19 117 16 gusting 22 3.3
2014-Oct-20 18:09 115 17 gusting 25 3.3
2014-Oct-20 17:59 123 18 gusting 22 3.3
2014-Oct-20 17:49 112 15 gusting 25 3.3
2014-Oct-20 17:39 107 13 gusting 22 3.3
2014-Oct-20 17:29 109 14 gusting 26 3.3
2014-Oct-20 17:19 116 11 gusting 25 3.3
2014-Oct-20 17:09 103 12 gusting 26 3.3
2014-Oct-20 16:59 122 12 gusting 27 3.3
2014-Oct-20 16:49 118 16 gusting 24 3.3
2014-Oct-20 16:39 108 15 gusting 22 3.3
2014-Oct-20 16:30 112 13 gusting 21 3.3
2014-Oct-20 16:19 125 13 gusting 21 3.3
2014-Oct-20 16:09 115 12 gusting 21 3.3
2014-Oct-20 15:59 117 17 gusting 22 3.3
2014-Oct-20 15:49 105 12 gusting 24 3.3
2014-Oct-20 15:39 114 13 gusting 20 3.3
2014-Oct-20 15:29 102 13 gusting 20 3.3
2014-Oct-20 15:19 111 13 gusting 24 3.9
2014-Oct-20 15:09 105 13 gusting 21 3.9
2014-Oct-20 14:59 096 13 gusting 22 3.9
2014-Oct-20 14:49 109 13 gusting 26 3.9
2014-Oct-20 14:39 112 14 gusting 22 3.9
2014-Oct-20 14:29 108 13 gusting 25 3.9
2014-Oct-20 14:19 090 11 gusting 22 3.9
2014-Oct-20 14:09 138 13 gusting 22 4.4
2014-Oct-20 13:59 113 13 gusting 22 4.4
2014-Oct-20 13:49 111 14 gusting 21 4.4
2014-Oct-20 13:39 126 12 gusting 22 5.0
2014-Oct-20 13:29 140 11 gusting 25 5.0
2014-Oct-20 13:19 114 12 gusting 24 5.0
2014-Oct-20 13:09 115 13 gusting 22 5.0
2014-Oct-20 12:59 122 13 gusting 26 5.0
2014-Oct-20 12:49 119 15 gusting 22 5.0
2014-Oct-20 12:39 106 13 gusting 22 5.6
2014-Oct-20 12:29 111 14 gusting 25 5.6
2014-Oct-20 12:19 110 13 gusting 26 5.6
2014-Oct-20 12:09 108 15 gusting 24 5.6
2014-Oct-20 11:59 099 14 gusting 22 5.6
2014-Oct-20 11:49 111 13 gusting 26 5.6
2014-Oct-20 11:39 109 17 gusting 25 5.6
2014-Oct-20 11:29 111 16 gusting 25 5.6
2014-Oct-20 11:19 106 15 gusting 26 5.6
2014-Oct-20 11:09 113 14 gusting 26 5.6
2014-Oct-20 10:59 113 15 gusting 22 6.1
2014-Oct-20 10:49 121 17 gusting 22 6.1
2014-Oct-20 10:39 101 14 gusting 22 5.6
2014-Oct-20 10:29 118 14 gusting 21 6.1
2014-Oct-20 10:19 108 13 gusting 25 6.1
2014-Oct-20 10:09 109 14 gusting 24 5.6
2014-Oct-20 09:59 124 16 gusting 26 5.6
2014-Oct-20 09:49 105 13 gusting 25 5.6
2014-Oct-20 09:39 103 15 gusting 24 5.0
2014-Oct-20 09:29 110 17 gusting 24 5.0
2014-Oct-20 09:19 107 15 gusting 22 5.0
2014-Oct-20 09:09 114 14 gusting 22 5.0
2014-Oct-20 08:59 128 13 gusting 21 5.0
2014-Oct-20 08:49 111 13 gusting 20 4.4
2014-Oct-20 08:39 110 15 gusting 26 4.4
2014-Oct-20 08:29 086 15 gusting 26 4.4
2014-Oct-20 08:19 105 15 gusting 24 4.4
2014-Oct-20 08:09 124 14 gusting 22 3.9
2014-Oct-20 07:59 107 15 gusting 22 3.9
2014-Oct-20 07:49 119 12 gusting 25 3.9
2014-Oct-20 07:39 098 17 gusting 26 3.9
2014-Oct-20 07:29 111 14 gusting 26 3.9
2014-Oct-20 07:19 101 14 gusting 26 3.9
2014-Oct-20 07:09 112 17 gusting 22 3.9
2014-Oct-20 06:59 112 15 gusting 25 3.9
2014-Oct-20 06:49 113 14 gusting 24 3.9
2014-Oct-20 06:39 116 13 gusting 21 3.9
2014-Oct-20 06:29 106 14 gusting 30 3.9
2014-Oct-20 06:19 114 15 gusting 26 3.9
2014-Oct-20 06:09 106 15 gusting 32 3.9
2014-Oct-20 05:59 115 15 gusting 22 3.9
2014-Oct-20 05:49 111 13 gusting 22 3.9
2014-Oct-20 05:39 110 12 gusting 24 3.9
2014-Oct-20 05:29 099 14 gusting 24 3.3
2014-Oct-20 05:19 117 16 gusting 26 3.3
2014-Oct-20 05:09 118 15 gusting 26 3.3
2014-Oct-20 04:59 119 11 gusting 21 3.3
2014-Oct-20 04:49 108 12 gusting 24 3.3
2014-Oct-20 04:39 102 12 gusting 19 3.3
2014-Oct-20 04:29 113 14 gusting 25 3.3
2014-Oct-20 04:19 112 12 gusting 22 3.3
2014-Oct-20 04:09 114 17 gusting 25 3.3
2014-Oct-20 03:59 120 13 gusting 27 3.9
2014-Oct-20 03:49 113 16 gusting 22 3.3
2014-Oct-20 03:39 131 12 gusting 22 3.3
2014-Oct-20 03:29 112 13 gusting 19 3.9
2014-Oct-20 03:19 105 13 gusting 22 3.9
2014-Oct-20 03:09 101 13 gusting 22 3.9
2014-Oct-20 02:59 108 15 gusting 21 3.9
2014-Oct-20 02:49 107 16 gusting 26 3.9
2014-Oct-20 02:39 119 18 gusting 26 3.9
2014-Oct-20 02:29 114 14 gusting 22 3.9
2014-Oct-20 02:19 072 13 gusting 22 3.9
2014-Oct-20 02:09 111 15 gusting 24 3.9
2014-Oct-20 01:59 121 14 gusting 25 3.9
2014-Oct-20 01:49 112 16 gusting 25 3.9
2014-Oct-20 01:39 108 15 gusting 26 3.9
2014-Oct-20 01:29 111 15 gusting 25 3.9
2014-Oct-20 01:19 114 18 gusting 26 3.9
2014-Oct-20 01:09 106 18 gusting 26 3.9
2014-Oct-20 00:59 114 14 gusting 26 3.9
2014-Oct-20 00:49 122 13 gusting 26 3.9
2014-Oct-20 00:39 112 14 gusting 24 3.9
2014-Oct-20 00:29 106 15 gusting 26 3.9
2014-Oct-20 00:19 123 18 gusting 25 3.9
2014-Oct-20 00:09 134 13 gusting 25 3.9
2014-Oct-19 23:59 116 14 gusting 22 3.3
2014-Oct-19 23:49 109 13 gusting 25 3.3
2014-Oct-19 23:39 115 16 gusting 26 3.9
2014-Oct-19 23:29 112 19 gusting 26 3.3
2014-Oct-19 23:19 106 13 gusting 25 3.3
2014-Oct-19 23:09 098 18 gusting 24 3.3
2014-Oct-19 22:59 104 17 gusting 26 3.3
2014-Oct-19 22:49 125 19 gusting 26 3.3
2014-Oct-19 22:39 103 15 gusting 28 3.3
2014-Oct-19 22:29 109 16 gusting 26 3.9
2014-Oct-19 22:19 096 16 gusting 28 3.9
2014-Oct-19 22:09 116 19 gusting 27 3.9
2014-Oct-19 21:59 114 15 gusting 22 3.9
2014-Oct-19 21:49 105 15 gusting 26 3.9
2014-Oct-19 21:39 108 13 gusting 21 3.9
2014-Oct-19 21:29 120 14 gusting 21 3.9
2014-Oct-19 21:19 115 15 gusting 20 3.9
2014-Oct-19 21:09 100 13 gusting 25 3.9
2014-Oct-19 20:59 117 13 gusting 22 3.9
2014-Oct-19 20:49 107 15 gusting 26 3.9
2014-Oct-19 20:39 127 16 gusting 26 3.9
2014-Oct-19 20:29 108 14 gusting 25 3.9
2014-Oct-19 20:19 113 11 gusting 24 3.9
2014-Oct-19 20:09 119 15 gusting 22 3.9
2014-Oct-19 19:59 123 16 gusting 26 3.3
2014-Oct-19 19:49 115 15 gusting 27 3.3
2014-Oct-19 19:39 126 15 gusting 28 3.3
2014-Oct-19 19:29 119 17 gusting 28 3.3
2014-Oct-19 19:19 121 13 gusting 30 3.3
2014-Oct-19 19:09 111 16 gusting 27 3.3
2014-Oct-19 18:59 117 16 gusting 30 3.3
2014-Oct-19 18:49 101 18 gusting 32 3.3
2014-Oct-19 18:39 111 13 gusting 27 3.3
2014-Oct-19 18:29 116 13 gusting 26 3.3
2014-Oct-19 18:19 120 18 gusting 26 3.3
2014-Oct-19 18:09 116 15 gusting 26 3.3
2014-Oct-19 17:59 114 14 gusting 22 3.3
2014-Oct-19 17:49 107 16 gusting 27 3.3
2014-Oct-19 17:39 119 14 gusting 25 3.3
2014-Oct-19 17:29 121 15 gusting 24 3.3
2014-Oct-19 17:19 106 13 gusting 22 3.3
2014-Oct-19 17:09 113 16 gusting 25 3.9
2014-Oct-19 16:59 117 13 gusting 24 3.9
2014-Oct-19 16:49 105 15 gusting 25 3.9
2014-Oct-19 16:39 115 15 gusting 28 3.9
2014-Oct-19 16:29 115 17 gusting 26 3.9
2014-Oct-19 16:19 111 14 gusting 22 3.9
2014-Oct-19 16:09 103 17 gusting 22 3.9
2014-Oct-19 15:59 121 14 gusting 26 3.9
2014-Oct-19 15:49 109 13 gusting 26 3.9
2014-Oct-19 15:39 108 17 gusting 26 3.9
2014-Oct-19 15:29 109 17 gusting 28 3.9
2014-Oct-19 15:19 128 15 gusting 25 3.9
2014-Oct-19 15:09 126 14 gusting 25 3.9
2014-Oct-19 14:59 122 19 gusting 26 3.9
2014-Oct-19 14:49 112 13 gusting 21 4.4
2014-Oct-19 14:39 113 13 gusting 21 4.4
2014-Oct-19 14:29 109 14 gusting 24 4.4
2014-Oct-19 14:19 092 14 gusting 24 4.4
2014-Oct-19 14:09 115 12 gusting 25 4.4
2014-Oct-19 13:59 117 14 gusting 21 4.4
2014-Oct-19 13:49 122 14 gusting 25 5.0
2014-Oct-19 13:39 115 14 gusting 22 5.0
2014-Oct-19 13:29 111 14 gusting 22 5.0
2014-Oct-19 13:19 099 13 gusting 21 5.6
2014-Oct-19 13:09 115 13 gusting 22 5.6
2014-Oct-19 12:59 103 15 gusting 22 5.6
2014-Oct-19 12:49 101 12 gusting 22 6.1
2014-Oct-19 12:39 127 13 gusting 19 6.1
2014-Oct-19 12:29 118 13 gusting 22 6.1
2014-Oct-19 12:19 109 12 gusting 20 6.1
2014-Oct-19 12:09 102 11 gusting 25 6.1
2014-Oct-19 11:59 119 15 gusting 26 6.7
2014-Oct-19 11:49 115 13 gusting 19 6.7
2014-Oct-19 11:39 110 10 gusting 17 6.7
2014-Oct-19 11:29 121 14 gusting 24 6.7
2014-Oct-19 11:19 105 11 gusting 24 6.7
2014-Oct-19 11:09 103 13 gusting 21 6.7
2014-Oct-19 10:59 121 10 gusting 19 6.7
2014-Oct-19 10:49 122 12 gusting 21 6.7
2014-Oct-19 10:39 103 13 gusting 21 6.7
2014-Oct-19 10:29 097 11 gusting 19 6.7
2014-Oct-19 10:19 091 11 gusting 19 6.7
2014-Oct-19 10:09 111 13 gusting 19 6.7